Flag for Norway Weather past 2 weeks in Harstad, Norway

Now
54 °F

Drizzle. Overcast.


Feels Like: 50 °F
Forecast: 53 / 55 °F
Wind: 12 mph from Southwest

Location: Evenes

Current Time: Aug 29, 2015 at 3:01:11 PM

Latest Report: Aug 29, 2015 at 1:50 PM


Visibility: N/A

Pressure: 29.50 "Hg

Humidity: 82%

Dew point: 48 °F

Location of HarstadLocation

Historic Weather in Harstad — Graph

°F

Harstad temperature yesterday

Maximum temperature yesterday: 66 °F (at 9:50 AM)
Minimum temperature yesterday: 61 °F (at 3:50 AM)
Average temperature yesterday: 63 °F

Past Weeks' High & Low Weather Summary

 TemperatureHumidityPressure
High75 °F (Aug 20, 3:50 PM)100% (Aug 14, 10:50 PM)30.33 "Hg (Aug 14, 10:50 PM)
Low43 °F (Aug 15, 3:20 AM)36% (Aug 16, 3:50 PM)29.36 "Hg (Aug 28, 2:50 PM)
Average59 °F75%30.06 "Hg
* Reported Aug 14 1:50 PM — Aug 29 1:50 PM, Harstad, Weather by CustomWeather, © 2015

Note: Actual official high and low records may vary slightly from our data, if they occured in-between our weather recording intervals... More about our weather records

Advertising

Harstad weather history for previous 24 hours

 ConditionsComfort  
Time TempWeatherWind HumidityBarometerVisibility
1:50 PM
Sat, Aug 29
54 °FDrizzle. Overcast.12 mph82%29.50 "HgN/A
1:20 PM57 °FLight rain. Overcast.13 mph63%29.50 "HgN/A
12:50 PM59 °FOvercast.10 mph55%29.47 "HgN/A
11:50 AM61 °FPartly sunny.10 mph55%29.47 "HgN/A
10:50 AM59 °FBroken clouds.12 mph59%29.47 "HgN/A
9:50 AM59 °FBroken clouds.9 mph59%29.47 "HgN/A
8:50 AM57 °FBroken clouds.7 mph63%29.45 "HgN/A
7:50 AM55 °FPartly sunny.5 mph72%29.45 "HgN/A
6:50 AM54 °FPartly sunny.No wind82%29.45 "HgN/A
6:07 AM54 °FBroken clouds.5 mph82%29.45 "HgN/A
5:50 AM54 °FOvercast.3 mph82%29.45 "HgN/A
4:50 AM55 °FOvercast.1 mph67%29.45 "HgN/A
4:20 AM55 °FOvercast.5 mph67%29.42 "HgN/A
3:50 AM57 °FMostly cloudy.12 mph59%29.42 "HgN/A
3:20 AM57 °FMostly cloudy.10 mph63%29.42 "HgN/A
2:50 AM57 °FOvercast.6 mph67%29.42 "HgN/A
2:20 AM59 °FMostly cloudy.12 mph72%29.42 "HgN/A
1:50 AM59 °FMostly cloudy.12 mph68%29.39 "HgN/A
1:20 AM59 °FPassing clouds.10 mph68%29.39 "HgN/A
12:50 AM61 °FPassing clouds.12 mph63%29.39 "HgN/A
11:50 PM
Fri, Aug 28
61 °FPassing clouds.15 mph63%29.39 "HgN/A
10:50 PM63 °FPassing clouds.18 mph64%29.39 "HgN/A
9:50 PM61 °FPassing clouds.16 mph63%29.36 "HgN/A
8:50 PM61 °FPartly sunny.15 mph68%29.36 "HgN/A
7:50 PM63 °FBroken clouds.15 mph64%29.39 "HgN/A
6:50 PM63 °FPartly sunny.16 mph68%29.36 "HgN/A
5:50 PM64 °FPartly sunny.15 mph64%29.36 "HgN/A
4:50 PM64 °FBroken clouds.13 mph64%29.39 "HgN/A
3:50 PM64 °FPartly sunny.18 mph64%29.36 "HgN/A
Weather by CustomWeather, © 2015

See weather overviewHow to use our weather pages